Weather History for K1P1 - March, 2014

Change the Weather History Date:

Sunday, March 30, 2014

  Actual Average (KLCI) Record (KLCI)
Temperature  
Mean Temperature 38 °F -  
Max Temperature 42 °F 53 °F 78 °F (1998)
Min Temperature 34 °F 30 °F 17 °F (2008)
Degree Days  
Heating Degree Days 26    
Moisture  
Dew Point 35 °F    
Average Humidity 88    
Maximum Humidity 97    
Minimum Humidity 73    
Precipitation  
Precipitation 0.57 in - - ()
Sea Level Pressure  
Sea Level Pressure 29.80 in    
Wind  
Wind Speed 6 mph (SE)    
Max Wind Speed 13 mph    
Max Gust Speed 22 mph    
Visibility 7 miles    
Events Rain , Snow    
Averages and records for this station are not official NWS values.
T = Trace of Precipitation, MM = Missing Value Source: NWS Daily Summary

Daily Weather History Graph

Daily Weather History Graph

Search for Another Location

Airport or City:

Trip Planner

Search our weather history database for the weather conditions in past years. The results will help you decide how hot, cold, wet, or windy it might be!

Date:

Astronomy

Mar. 30, 2014 Rise Set
Actual Time 6:32 AM EDT 7:11 PM EDT
Civil Twilight 6:03 AM EDT 7:40 PM EDT
Nautical Twilight 5:29 AM EDT 8:14 PM EDT
Astronomical Twilight 4:53 AM EDT 8:50 PM EDT
Moon 6:16 AM EDT (3/30) 7:21 PM EDT (3/30)
Length of Visible Light 13h 37m
Length of Day
12h 39m
Waning Crescent, 0% of the Moon is Illuminated
Mar 30
Waning Crescent
Mar 30
New
Apr 7
First Quarter
Apr 15
Full
Apr 22
Last Quarter

Hourly Weather History & Observations

Time (EDT) Temp. Windchill Dew Point Humidity Pressure Visibility Wind Dir Wind Speed Gust Speed Precip Events Conditions
12:15 AM 38.3 °F 31.9 °F 35.6 °F 90% 30.05 in 7.0 mi ESE 9.2 mph - 0.01 in Rain Light Rain
12:35 AM 38.1 °F 32.9 °F 35.2 °F 89% 30.04 in 7.0 mi SE 6.9 mph 16.1 mph 0.02 in Rain Rain
12:55 AM 37.4 °F 32.8 °F 35.6 °F 93% 30.04 in 5.0 mi ESE 5.8 mph - 0.04 in Rain Rain
1:15 AM 37.6 °F 31.6 °F 35.6 °F 93% 30.03 in 5.0 mi East 8.1 mph - 0.02 in Rain Rain
1:35 AM 37.6 °F 30.5 °F 34.7 °F 89% 30.01 in 5.0 mi ESE 10.4 mph 20.7 mph 0.05 in Rain Rain
1:55 AM 37.4 °F 32.1 °F 34.7 °F 90% 30.00 in 5.0 mi SE 6.9 mph - 0.06 in Rain Rain
2:15 AM 37.4 °F 29.3 °F 34.5 °F 89% 29.99 in 5.0 mi East 12.7 mph 19.6 mph 0.02 in Rain Rain
2:35 AM 37.4 °F 29.3 °F 33.8 °F 87% 29.97 in 7.0 mi East 12.7 mph 20.7 mph 0.03 in Rain Light Rain
2:55 AM 37.6 °F 31.0 °F 33.8 °F 86% 29.96 in 7.0 mi ESE 9.2 mph 20.7 mph 0.03 in Rain Light Rain
3:15 AM 37.6 °F 32.3 °F 33.8 °F 86% 29.95 in 7.0 mi ESE 6.9 mph 17.3 mph N/A Rain Light Rain
3:35 AM 37.6 °F 33.1 °F 34.0 °F 87% 29.93 in 4.0 mi ESE 5.8 mph - 0.01 in Rain Rain
3:55 AM 37.6 °F 34.0 °F 34.7 °F 89% 29.91 in 4.0 mi ESE 4.6 mph - 0.04 in Rain Rain
4:15 AM 37.6 °F 34.0 °F 35.1 °F 91% 29.88 in 3.0 mi ESE 4.6 mph - 0.04 in Rain Rain
4:35 AM 37.6 °F 33.1 °F 35.4 °F 92% 29.87 in 4.0 mi SSE 5.8 mph - 0.07 in Rain Rain
4:55 AM 36.7 °F 32.9 °F 35.1 °F 94% 29.86 in 4.0 mi SSE 4.6 mph - 0.09 in Rain Rain
5:15 AM 37.6 °F 35.1 °F 36.0 °F 94% 29.83 in 3.0 mi SE 3.5 mph - 0.03 in Rain Rain
5:35 AM 37.9 °F 33.5 °F 35.8 °F 92% 29.84 in 3.0 mi SSE 5.8 mph - 0.07 in Rain Light Rain
5:55 AM 38.5 °F 30.7 °F 36.0 °F 91% 29.81 in 5.0 mi East 12.7 mph 18.4 mph 0.09 in Rain Light Rain
6:15 AM 38.7 °F 32.9 °F 34.9 °F 86% 29.81 in 7.0 mi ESE 8.1 mph 21.9 mph 0.01 in Rain Light Rain
6:35 AM 38.5 °F 34.1 °F 34.7 °F 86% 29.80 in 5.0 mi ESE 5.8 mph - 0.01 in   Drizzle
6:55 AM 37.8 °F 35.3 °F 34.9 °F 89% 29.80 in 3.0 mi East 3.5 mph - 0.01 in   Heavy Drizzle
7:15 AM 37.4 °F 32.1 °F 35.1 °F 91% 29.79 in 2.5 mi East 6.9 mph - 0.01 in   Drizzle
7:35 AM 37.6 °F 33.1 °F 34.9 °F 90% 29.79 in 2.5 mi East 5.8 mph - 0.02 in Rain Light Rain
7:55 AM 37.6 °F 31.6 °F 34.7 °F 89% 29.81 in 2.0 mi East 8.1 mph - 0.03 in Rain Light Rain
8:15 AM 37.0 °F 32.4 °F 34.7 °F 91% 29.80 in 2.5 mi ESE 5.8 mph - 0.01 in Rain Rain
8:35 AM 36.9 °F 33.1 °F 34.9 °F 93% 29.80 in 2.0 mi SE 4.6 mph - 0.03 in   Drizzle
8:55 AM 37.2 °F 31.2 °F 34.9 °F 91% 29.78 in 3.0 mi ESE 8.1 mph - 0.03 in Rain Rain
9:15 AM 37.4 °F 32.8 °F 34.5 °F 89% 29.76 in 7.0 mi ESE 5.8 mph - N/A   Unknown
9:35 AM 37.4 °F 29.8 °F 34.7 °F 90% 29.77 in 7.0 mi ESE 11.5 mph - N/A   Unknown
9:55 AM 37.9 °F 32.1 °F 34.7 °F 88% 29.77 in 5.0 mi ESE 8.1 mph 16.1 mph N/A   Mist
10:15 AM 38.3 °F 31.9 °F 34.2 °F 85% 29.77 in 10.0 mi SE 9.2 mph 19.6 mph N/A   Unknown
10:35 AM 37.8 °F 32.5 °F 34.9 °F 89% 29.78 in 5.0 mi SE 6.9 mph - N/A   Mist
10:55 AM 37.8 °F 35.3 °F 34.3 °F 87% 29.78 in 10.0 mi SE 3.5 mph - N/A   Unknown
11:15 AM 38.3 °F 35.9 °F 34.0 °F 84% 29.77 in 10.0 mi ESE 3.5 mph - N/A   Unknown
11:35 AM 37.6 °F 35.1 °F 34.3 °F 88% 29.76 in 10.0 mi South 3.5 mph - N/A   Unknown
11:55 AM 39.6 °F 34.7 °F 34.0 °F 80% 29.76 in 10.0 mi SE 6.9 mph - N/A   Unknown
12:15 PM 41.0 °F 35.8 °F 33.3 °F 74% 29.76 in 10.0 mi East 8.1 mph - N/A   Unknown
12:35 PM 41.0 °F 35.2 °F 33.1 °F 73% 29.76 in 10.0 mi ESE 9.2 mph - N/A   Unknown
12:55 PM 40.3 °F - 34.0 °F 78% 29.75 in 10.0 mi Calm Calm - N/A   Unknown
1:15 PM 38.8 °F 34.6 °F 35.1 °F 86% 29.75 in 10.0 mi WNW 5.8 mph - N/A   Unknown
1:35 PM 38.8 °F 35.4 °F 35.2 °F 87% 29.75 in 10.0 mi WNW 4.6 mph - N/A   Unknown
1:55 PM 38.7 °F 35.2 °F 35.8 °F 89% 29.75 in 10.0 mi WNW 4.6 mph - N/A   Unknown
2:15 PM 39.2 °F 35.0 °F 36.1 °F 89% 29.75 in 10.0 mi WNW 5.8 mph - N/A   Unknown
2:35 PM 39.4 °F 35.2 °F 36.5 °F 89% 29.74 in 10.0 mi WNW 5.8 mph - N/A   Unknown
2:55 PM 39.9 °F 37.8 °F 36.7 °F 88% 29.73 in 10.0 mi West 3.5 mph - N/A   Unknown
3:15 PM 40.6 °F - 36.9 °F 86% 29.73 in 10.0 mi Calm Calm - N/A   Unknown
3:35 PM 41.5 °F - 36.9 °F 83% 29.72 in 10.0 mi Calm Calm - N/A   Unknown
3:55 PM 41.7 °F - 37.0 °F 83% 29.72 in 10.0 mi Calm Calm - N/A   Unknown
4:15 PM 42.4 °F - 36.9 °F 81% 29.71 in 10.0 mi Calm Calm - N/A   Unknown
4:35 PM 42.4 °F - 36.5 °F 79% 29.71 in 10.0 mi Calm Calm - N/A   Unknown
4:55 PM 42.8 °F - 36.9 °F 80% 29.71 in 10.0 mi Calm Calm - N/A   Unknown
5:15 PM 42.3 °F - 36.7 °F 81% 29.70 in 10.0 mi Calm Calm - N/A   Unknown
5:35 PM 42.1 °F - 36.9 °F 82% 29.70 in 10.0 mi Calm Calm - N/A   Unknown
5:55 PM 41.5 °F - 36.5 °F 82% 29.70 in 10.0 mi Calm Calm - N/A   Unknown
6:15 PM 40.3 °F 36.3 °F 36.5 °F 86% 29.71 in 10.0 mi WNW 5.8 mph - N/A   Light Drizzle
6:35 PM 39.7 °F - 36.5 °F 88% 29.72 in 10.0 mi Calm Calm - N/A   Unknown
6:55 PM 39.0 °F - 35.6 °F 88% 29.72 in 10.0 mi Calm Calm - N/A   Unknown
7:15 PM 38.3 °F - 35.1 °F 88% 29.73 in 7.0 mi Calm Calm - N/A   Unknown
7:35 PM 37.4 °F 34.9 °F 34.9 °F 91% 29.74 in 7.0 mi West 3.5 mph - N/A   Unknown
7:55 PM 37.2 °F 33.6 °F 35.1 °F 92% 29.75 in 7.0 mi West 4.6 mph - N/A   Unknown
8:15 PM 37.4 °F 34.9 °F 35.2 °F 92% 29.76 in 10.0 mi WSW 3.5 mph - N/A   Unknown
8:35 PM 36.7 °F - 34.7 °F 93% 29.75 in 4.0 mi Calm Calm - N/A   Mist
8:55 PM 36.1 °F - 34.7 °F 94% 29.74 in 4.0 mi Calm Calm - N/A   Mist
9:15 PM 36.0 °F - 35.1 °F 97% 29.74 in 4.0 mi Calm Calm - N/A   Mist
9:35 PM 35.8 °F 31.9 °F 34.9 °F 97% 29.75 in 10.0 mi WNW 4.6 mph - N/A   Unknown
9:55 PM 36.1 °F - 34.9 °F 95% 29.75 in 10.0 mi Calm Calm - N/A   Unknown
10:15 PM 35.8 °F - 34.7 °F 96% 29.76 in 7.0 mi Calm Calm - N/A Rain Rain
10:35 PM 36.0 °F - 34.3 °F 94% 29.77 in 10.0 mi Calm Calm - 0.01 in Rain Light Rain
10:55 PM 36.3 °F 31.6 °F 33.3 °F 89% 29.76 in 7.0 mi West 5.8 mph - 0.01 in Rain Rain
11:15 PM 35.6 °F 29.9 °F 32.9 °F 90% 29.77 in 4.0 mi West 6.9 mph - 0.03 in Rain Rain
11:35 PM 35.6 °F 32.8 °F 33.1 °F 91% 29.78 in 3.0 mi WNW 3.5 mph - 0.09 in Snow Light Snow
11:55 PM 34.9 °F 29.0 °F 32.9 °F 92% 29.76 in 3.0 mi WNW 6.9 mph - 0.14 in Snow Snow